When you browse on this site, cookies collect data to enhance your experience and personalize the content and advertising you see.
Visit our Privacy Policy to learn more. By continuing to use the site, you agree to this use of cookies and data.
  • In Czech Republic
  • List of Countries
  • For 7 days
  • Water Temperature
  • Satellite Maps
  • Weather Map
  • Weather Widgets
  • user-avatar
    Login

    Hourly Weather Mayrhofen

    Today, 23 May, Thursday

    Time Temperature Precipitation Wind Pressure Humidity
    00:00 +3°C° 0 mm 1 mps 617 mmHg 97%
    01:00 +2°C° 0 mm 1 mps 617 mmHg 96%
    02:00 +2°C° 0 mm 1 mps 617 mmHg 96%
    03:00 +2°C° 0 mm 1 mps 617 mmHg 95%
    04:00 +1°C° 0 mm 1 mps 617 mmHg 95%
    05:00 +3°C° 0 mm 1 mps 617 mmHg 91%
    06:00 +4°C° 0 mm 1 mps 618 mmHg 88%
    07:00 +6°C° 0 mm 1 mps 618 mmHg 84%
    08:00 +7°C° 0 mm 1 mps 618 mmHg 79%
    09:00 +9°C° 0 mm 1 mps 619 mmHg 73%
    10:00 +9°C° 0 mm 2 mps 619 mmHg 68%
    11:00 +10°C° 0 mm 2 mps 619 mmHg 64%
    12:00 +12°C° 0 mm 2 mps 619 mmHg 61%
    13:00 +13°C° 0 mm 2 mps 620 mmHg 57%
    14:00 +13°C° 0 mm 2 mps 619 mmHg 56%
    15:00 +13°C° 0 mm 2 mps 619 mmHg 56%
    16:00 +13°C° 0 mm 2 mps 619 mmHg 55%
    17:00 +10°C° 0 mm 2 mps 618 mmHg 62%
    18:00 +9°C° 0 mm 2 mps 618 mmHg 70%
    19:00 +7°C° 0 mm 2 mps 617 mmHg 77%
    20:00 +5°C° 0 mm 2 mps 617 mmHg 82%
    21:00 +4°C° 0 mm 1 mps 616 mmHg 87%
    22:00 +2°C° 0 mm 1 mps 616 mmHg 92%
    23:00 +2°C° 0 mm 1 mps 616 mmHg 92%

    Tomorrow, 24 May, Friday

    Time Temperature Precipitation Wind Pressure Humidity
    00:00 +2°C° 0 mm 1 mps 616 mmHg 92%
    01:00 +2°C° 0 mm 1 mps 615 mmHg 91%
    02:00 +2°C° 0 mm 1 mps 615 mmHg 90%
    03:00 +2°C° 0 mm 1 mps 615 mmHg 88%
    04:00 +2°C° 0 mm 1 mps 615 mmHg 87%
    05:00 +3°C° 0 mm 0 mps 616 mmHg 79%
    06:00 +5°C° 0 mm 0 mps 617 mmHg 72%
    07:00 +8°C° 0 mm 0 mps 617 mmHg 64%
    08:00 +9°C° 0 mm 0 mps 618 mmHg 58%
    09:00 +12°C° 0 mm 1 mps 618 mmHg 51%
    10:00 +13°C° 0 mm 1 mps 619 mmHg 45%
    11:00 +14°C° 0 mm 1 mps 619 mmHg 44%
    12:00 +15°C° 0 mm 2 mps 619 mmHg 44%
    13:00 +15°C° 0 mm 2 mps 619 mmHg 43%
    14:00 +15°C° 0 mm 2 mps 618 mmHg 46%
    15:00 +15°C° 0 mm 2 mps 618 mmHg 48%
    16:00 +14°C° 0 mm 3 mps 618 mmHg 51%
    17:00 +13°C° 0.1 mm 2 mps 617 mmHg 60%
    18:00 +12°C° 0.1 mm 2 mps 617 mmHg 69%
    19:00 +10°C° 0.1 mm 1 mps 616 mmHg 78%
    20:00 +9°C° 0.2 mm 1 mps 616 mmHg 83%
    21:00 +7°C° 0.2 mm 1 mps 616 mmHg 89%
    22:00 +4°C° 0.2 mm 0 mps 615 mmHg 94%
    23:00 +4°C° 0.2 mm 0 mps 615 mmHg 94%

    Day after tomorrow, 25 May, Saturday

    Time Temperature Precipitation Wind Pressure Humidity
    00:00 +4°C° 0.2 mm 0 mps 615 mmHg 95%
    01:00 +4°C° 0.2 mm 0 mps 615 mmHg 95%
    02:00 +4°C° 0 mm 0 mps 615 mmHg 95%
    03:00 +3°C° 0 mm 0 mps 615 mmHg 95%
    04:00 +3°C° 0 mm 0 mps 615 mmHg 95%
    05:00 +5°C° 0 mm 0 mps 615 mmHg 90%
    06:00 +7°C° 0 mm 0 mps 616 mmHg 84%
    07:00 +9°C° 0 mm 0 mps 617 mmHg 79%
    08:00 +10°C° 0.2 mm 0 mps 617 mmHg 75%
    09:00 +11°C° 0.2 mm 0 mps 618 mmHg 71%
    10:00 +13°C° 0.2 mm 1 mps 618 mmHg 67%
    11:00 +13°C° 0.9 mm 1 mps 618 mmHg 69%
    12:00 +12°C° 0.9 mm 1 mps 618 mmHg 71%
    13:00 +11°C° 0.9 mm 0 mps 617 mmHg 74%
    14:00 +12°C° 1.1 mm 1 mps 617 mmHg 76%
    15:00 +12°C° 1.1 mm 1 mps 617 mmHg 78%
    16:00 +11°C° 1.1 mm 1 mps 617 mmHg 80%
    17:00 +11°C° 0.8 mm 1 mps 617 mmHg 84%
    18:00 +10°C° 0.8 mm 1 mps 617 mmHg 88%
    19:00 +9°C° 0.8 mm 1 mps 616 mmHg 92%
    20:00 +7°C° 0.2 mm 0 mps 616 mmHg 93%
    21:00 +6°C° 0.2 mm 0 mps 616 mmHg 95%
    22:00 +5°C° 0.2 mm 0 mps 616 mmHg 96%
    23:00 +5°C° 0 mm 0 mps 616 mmHg 96%

    26 May, Sunday

    Time Temperature Precipitation Wind Pressure Humidity
    00:00 +4°C° 0 mm 0 mps 616 mmHg 96%
    01:00 +5°C° 0 mm 1 mps 615 mmHg 96%
    02:00 +5°C° 0 mm 1 mps 615 mmHg 96%
    03:00 +3°C° 0 mm 0 mps 615 mmHg 96%
    04:00 +3°C° 0 mm 0 mps 615 mmHg 96%
    05:00 +6°C° 0 mm 1 mps 615 mmHg 94%
    06:00 +7°C° 0 mm 1 mps 616 mmHg 91%
    07:00 +9°C° 0 mm 1 mps 617 mmHg 89%
    08:00 +9°C° 0.1 mm 2 mps 617 mmHg 85%
    09:00 +10°C° 0.1 mm 2 mps 618 mmHg 80%
    10:00 +10°C° 0.1 mm 2 mps 618 mmHg 75%
    11:00 +12°C° 0.1 mm 2 mps 618 mmHg 72%
    12:00 +13°C° 0.1 mm 2 mps 619 mmHg 69%
    13:00 +14°C° 0.1 mm 2 mps 619 mmHg 65%
    14:00 +14°C° 0.4 mm 2 mps 619 mmHg 66%
    15:00 +13°C° 0.4 mm 3 mps 618 mmHg 66%
    16:00 +13°C° 0.4 mm 3 mps 618 mmHg 67%
    17:00 +12°C° 0.4 mm 3 mps 618 mmHg 75%
    18:00 +10°C° 0.4 mm 3 mps 617 mmHg 83%
    19:00 +9°C° 0.4 mm 3 mps 617 mmHg 91%
    20:00 +8°C° 0 mm 2 mps 617 mmHg 93%
    21:00 +7°C° 0 mm 2 mps 617 mmHg 96%
    22:00 +7°C° 0 mm 1 mps 617 mmHg 98%
    23:00 +7°C° 0 mm 1 mps 617 mmHg 97%

    27 May, Monday

    Time Temperature Precipitation Wind Pressure Humidity
    00:00 +7°C° 0 mm 1 mps 616 mmHg 97%
    01:00 +5°C° 0 mm 0 mps 616 mmHg 96%
    02:00 +5°C° 0 mm 0 mps 616 mmHg 96%
    03:00 +5°C° 0 mm 0 mps 615 mmHg 95%
    04:00 +4°C° 0 mm 0 mps 615 mmHg 95%
    05:00 +6°C° 0.1 mm 0 mps 616 mmHg 91%
    06:00 +7°C° 0.1 mm 0 mps 616 mmHg 87%
    07:00 +8°C° 0.1 mm 0 mps 616 mmHg 83%
    08:00 +9°C° 0.3 mm 0 mps 617 mmHg 79%
    09:00 +10°C° 0.3 mm 0 mps 617 mmHg 74%
    10:00 +12°C° 0.3 mm 1 mps 617 mmHg 70%
    11:00 +12°C° 1 mm 1 mps 617 mmHg 73%
    12:00 +12°C° 1 mm 1 mps 617 mmHg 76%
    13:00 +12°C° 1 mm 1 mps 616 mmHg 80%
    14:00 +11°C° 2.1 mm 1 mps 616 mmHg 83%
    15:00 +10°C° 2.1 mm 1 mps 615 mmHg 87%
    16:00 +10°C° 2.1 mm 1 mps 615 mmHg 91%
    17:00 +10°C° 1.6 mm 1 mps 615 mmHg 92%
    18:00 +9°C° 1.6 mm 1 mps 614 mmHg 93%
    19:00 +8°C° 1.6 mm 0 mps 614 mmHg 94%
    20:00 +7°C° 0.4 mm 0 mps 614 mmHg 95%
    21:00 +7°C° 0.4 mm 0 mps 614 mmHg 95%
    22:00 +6°C° 0.4 mm 0 mps 614 mmHg 95%
    23:00 +6°C° 0.1 mm 0 mps 613 mmHg 95%

    28 May, Tuesday

    Time Temperature Precipitation Wind Pressure Humidity
    00:00 +7°C° 0.1 mm 1 mps 613 mmHg 95%
    01:00 +6°C° 0.1 mm 1 mps 613 mmHg 95%
    02:00 +5°C° 0 mm 1 mps 612 mmHg 95%
    03:00 +5°C° 0 mm 1 mps 612 mmHg 95%
    04:00 +4°C° 0 mm 1 mps 611 mmHg 95%
    05:00 +6°C° 0 mm 1 mps 612 mmHg 91%
    06:00 +7°C° 0 mm 1 mps 612 mmHg 88%
    07:00 +9°C° 0 mm 1 mps 613 mmHg 84%
    08:00 +11°C° 0 mm 1 mps 613 mmHg 75%
    09:00 +12°C° 0 mm 1 mps 614 mmHg 66%
    10:00 +14°C° 0 mm 1 mps 614 mmHg 57%
    11:00 +14°C° 0.3 mm 1 mps 614 mmHg 57%
    12:00 +14°C° 0.3 mm 1 mps 614 mmHg 57%
    13:00 +15°C° 0.3 mm 1 mps 613 mmHg 57%
    14:00 +14°C° 0.9 mm 1 mps 613 mmHg 63%
    15:00 +13°C° 0.9 mm 1 mps 612 mmHg 68%
    16:00 +13°C° 0.9 mm 1 mps 612 mmHg 74%
    17:00 +12°C° 0.8 mm 1 mps 611 mmHg 79%
    18:00 +11°C° 0.8 mm 1 mps 611 mmHg 85%
    19:00 +10°C° 0.8 mm 1 mps 611 mmHg 90%
    20:00 +9°C° 2.2 mm 1 mps 611 mmHg 92%
    21:00 +8°C° 2.2 mm 1 mps 611 mmHg 95%
    22:00 +8°C° 2.2 mm 1 mps 611 mmHg 97%
    23:00 +7°C° 4.3 mm 1 mps 611 mmHg 98%
    Show more